Location: Avenches
(46.8809°N, 7.0410°E)
Time: 23:31:37
(UTC+00:00)

STARLINK-1138 - Pass Details

Date: 30 March 2020
Orbit: 548 x 551 km, 53.0° (Epoch: 03 June)

Event Time Altitude Azimuth Distance (km) Brightness Sun altitude
Rises 19:08:13 0° 244° (WSW) 2,716 7.9 -12.3°
Reaches altitude 10° 19:10:27 10° 246° (WSW) 1,825 7.0 -12.7°
Maximum altitude 19:14:35 77° 332° (NNW) 571 3.7 -13.3°
Drops below altitude 10° 19:18:46 10° 59° (ENE) 1,832 5.9 -14.0°
Enters shadow 19:18:46 10° 59° (ENE) 1,836 5.9 -14.0°
